User: anonymous   Login
Location: Unspecified
(0.0000°N, 0.0000°E)
Time: 16:07:57
(UTC+01:00)
Language:

Cosmos 1263 Rocket - Orbit

View from above orbital plane
View from above orbital plane
View from above satellite
View from above satellite

Ground track
Ground track

The orbit data is extracted from the following two-line orbital elements,

1 12389U 81033B   15059.53505368  .00087807  99976-6  68752-3 0  9990
2 12389 082.8640 216.0483 0128565 257.3690 167.3812 15.61081352749286
Epoch (UTC): 28 February 2015 12:50:28
Eccentricity: 0.0128565
inclination: 82.8640°
perigee height: 297 km
apogee height: 471 km
right ascension of ascending node: 216.0483°
argument of perigee: 257.3690°
revolutions per day: 15.61081352
mean anomaly at epoch: 167.3812°
orbit number at epoch: 74928

The dashed part of the orbit path shows where the satellite is in the earth's shadow,  

DLR